This demonstration page uses our WeatherBlox Daily Observations layout. Learn more.

Left ArrowRight Arrow

40.92945, -100.16068

Hourly Observations for August 25, 2020

Temp ( °F °C ) Dew Point ( °F °C ) Humidity (%) Winds ( mph kmh ) Pressure ( in mb ) Visibility ( mi km ) Precip ( " mm )
12:15 am 00:15 Clear 79 26.1 59 15.2 51 51 S 15 24 29.85 1011 10 16.0934 0 0
12:35 am 00:35 Clear 79 26.1 59 15.2 51 51 S 18 30 29.85 1011 10 16.0934 0 0
12:55 am 00:55 Clear 78 25.8 59 15.1 52 52 S 15 24 29.85 1011 10 16.0934 0 0
1:15 am 01:15 Clear 78 25.5 59 15.2 53 53 S 15 24 29.87 1011 10 16.0934 0 0
1:35 am 01:35 Clear 77 25 60 15.3 55 55 S 15 24 29.87 1012 10 16.0934 0 0
1:55 am 01:55 Clear 76 24.5 60 15.3 57 57 S 14 22 29.87 1012 10 16.0934 0 0
2:15 am 02:15 Clear 75 23.9 60 15.5 59 59 S 10 17 29.87 1011 10 16.0934 0 0
2:35 am 02:35 Clear 74 23.3 60 15.5 62 62 S 9 15 29.88 1012 10 16.0934 0 0
2:55 am 02:55 Clear 73 22.5 60 15.5 65 65 S 8 13 29.88 1012 10 16.0934 0 0
3:15 am 03:15 Clear 72 22.1 60 15.4 66 66 S 8 13 29.88 1012 10 16.0934 0 0
3:35 am 03:35 Clear 71 21.6 60 15.3 68 68 S 7 11 29.89 1012 10 16.0934 0 0
3:55 am 03:55 Clear 71 21.6 60 15.3 68 68 S 7 11 29.89 1012 10 16.0934 0 0
4:15 am 04:15 Clear 70 21.1 60 15.3 70 70 S 5 7 29.89 1012 10 16.0934 0 0
4:35 am 04:35 Clear 69 20.7 59 15.2 71 71 S 3 6 29.9 1012 10 16.0934 0 0
4:55 am 04:55 Clear 69 20.5 59 15.2 72 72 Calm 29.9 1012 10 16.0934 0 0
5:15 am 05:15 Clear 67 19.7 59 15.1 75 75 Calm 29.9 1013 10 16.0934 0 0
5:35 am 05:35 Clear 67 19.6 59 14.9 74 74 ESE 3 6 29.91 1013 10 16.0934 0 0
5:55 am 05:55 Clear 68 19.8 59 15.1 74 74 SSE 6 9 29.9 1013 10 16.0934 0 0
6:15 am 06:15 Clear 67 19.7 59 15.1 75 75 SSE 7 11 29.9 1013 10 16.0934 0 0
6:35 am 06:35 Clear 66 19.1 59 15 77 77 S 5 7 29.91 1013 10 16.0934 0 0
6:55 am 06:55 Clear 67 19.7 59 14.9 74 74 SE 6 9 29.9 1013 10 16.0934 0 0
7:15 am 07:15 Sunny 67 19.7 58 14.7 73 73 SSE 6 9 29.91 1013 10 16.0934 0 0
7:35 am 07:35 Sunny 68 20 58 14.6 71 71 SSE 6 9 29.91 1013 10 16.0934 0 0
7:55 am 07:55 Sunny 69 20.6 58 14.7 69 69 SSE 7 11 29.91 1013 10 16.0934 0 0
8:15 am 08:15 Sunny 70 21.1 59 15 68 68 SSE 7 11 29.9 1013 10 16.0934 0 0
8:35 am 08:35 Sunny 73 22.5 58 14.7 61 61 S 12 19 29.89 1012 10 16.0934 0 0
8:55 am 08:55 Sunny 74 23.5 58 14.6 57 57 S 14 22 29.87 1012 10 16.0934 0 0
9:15 am 09:15 Sunny 76 24.5 58 14.5 54 54 S 18 30 29.86 1011 10 16.0934 0 0
9:35 am 09:35 Sunny 78 25.3 58 14.5 51 51 SSW 17 28 29.86 1011 10 16.0934 0 0
9:55 am 09:55 Sunny 79 26.1 58 14.5 49 49 S 14 22 29.85 1011 10 16.0934 0 0
10:15 am 10:15 Sunny 81 27 58 14.6 47 47 S 17 28 29.84 1011 10 16.0934 0 0
10:35 am 10:35 Sunny 82 27.5 59 14.8 46 46 SSW 13 20 29.84 1010 10 16.0934 0 0
10:55 am 10:55 Sunny 82 27.9 59 15.2 46 46 S 13 20 29.84 1010 10 16.0934 0 0
11:15 am 11:15 Sunny 84 29 60 15.4 44 44 S 15 24 29.83 1010 10 16.0934 0 0
11:35 am 11:35 Sunny 86 30 60 15.5 41 41 SSW 18 30 29.82 1010 10 16.0934 0 0
11:55 am 11:55 Sunny 88 31.1 59 15.1 38 38 S 15 24 29.81 1009 10 16.0934 0 0
12:15 pm 12:15 Sunny 90 32.1 58 14.4 34 34 SSW 15 24 29.79 1009 10 16.0934 0 0
12:35 pm 12:35 Sunny 90 32.4 58 14.5 34 34 SSW 17 28 29.79 1009 10 16.0934 0 0
12:55 pm 12:55 Sunny 92 33.3 58 14.6 32 32 S 15 24 29.77 1008 10 16.0934 0 0
1:15 pm 13:15 Sunny 93 33.9 57 14.1 30 30 SSW 20 31 29.77 1008 10 16.0934 0 0
1:35 pm 13:35 Sunny 93 34.1 58 14.2 30 30 SSW 20 31 29.76 1008 10 16.0934 0 0
1:55 pm 13:55 Sunny 95 34.8 57 14 29 29 S 22 35 29.75 1008 10 16.0934 0 0
2:15 pm 14:15 Sunny 95 35.1 56 13.2 27 27 S 21 33 29.75 1007 10 16.0934 0 0
2:35 pm 14:35 Sunny 96 35.5 55 12.8 25 25 SSW 18 30 29.75 1007 10 16.0934 0 0
2:55 pm 14:55 Sunny 96 35.5 55 12.8 25 25 SSW 22 35 29.75 1007 10 16.0934 0 0
3:15 pm 15:15 Sunny 97 36 55 12.9 25 25 SSW 17 28 29.73 1007 10 16.0934 0 0
3:35 pm 15:35 Sunny 96 35.8 55 12.7 25 25 S 17 28 29.72 1007 10 16.0934 0 0
3:55 pm 15:55 Sunny 97 36.2 54 12.4 24 24 SSW 21 33 29.72 1006 10 16.0934 0 0
4:15 pm 16:15 Sunny 97 35.9 53 11.9 23 23 SSW 20 31 29.71 1006 10 16.0934 0 0
4:35 pm 16:35 Sunny 97 36.1 53 11.6 23 23 S 20 31 29.7 1006 10 16.0934 0 0
4:55 pm 16:55 Sunny 97 36 53 11.4 22 22 S 16 26 29.7 1006 10 16.0934 0 0
5:15 pm 17:15 Sunny 96 35.7 53 11.5 23 23 S 18 30 29.7 1006 10 16.0934 0 0
5:35 pm 17:35 Sunny 96 35.5 52 11.1 23 23 S 17 28 29.71 1006 10 16.0934 0 0
5:55 pm 17:55 Sunny 96 35.3 53 11.4 23 23 S 14 22 29.71 1006 10 16.0934 0 0
6:15 pm 18:15 Sunny 94 34.6 52 11 24 24 S 17 28 29.7 1006 10 16.0934 0 0
6:35 pm 18:35 Sunny 94 34.2 52 11.2 25 25 S 13 20 29.71 1006 10 16.0934 0 0
6:55 pm 18:55 Sunny 90 32.4 56 13.5 32 32 SSE 10 17 29.73 1007 10 16.0934 0 0
7:15 pm 19:15 Sunny 89 31.5 56 13.1 32 32 SSE 12 19 29.73 1007 10 16.0934 0 0
7:35 pm 19:35 Sunny 87 30.4 54 12.3 33 33 SSE 13 20 29.74 1007 10 16.0934 0 0
7:55 pm 19:55 Sunny 84 29 55 12.5 36 36 SSE 12 19 29.75 1007 10 16.0934 0 0
8:15 pm 20:15 Sunny 82 27.9 54 12.3 38 38 SSE 9 15 29.76 1008 10 16.0934 0 0
8:35 pm 20:35 Clear 80 26.5 55 13 43 43 SSE 9 15 29.78 1008 10 16.0934 0 0
8:55 pm 20:55 Clear 78 25.6 56 13.5 47 47 SSE 13 20 29.79 1009 10 16.0934 0 0
9:15 pm 21:15 Clear 77 25 56 13.2 48 48 SSE 10 17 29.79 1009 10 16.0934 0 0
9:35 pm 21:35 Clear 76 24.5 55 13 49 49 SSE 9 15 29.8 1009 10 16.0934 0 0
9:55 pm 21:55 Clear 76 24.2 55 12.7 49 49 SSE 10 17 29.82 1010 10 16.0934 0 0
10:15 pm 22:15 Clear 76 24.2 55 12.5 48 48 SSE 10 17 29.81 1009 10 16.0934 0 0
10:35 pm 22:35 Clear 76 24.2 54 12.4 48 48 SSE 13 20 29.82 1010 10 16.0934 0 0
10:55 pm 22:55 Clear 75 24 55 12.5 49 49 SSE 13 20 29.82 1010 10 16.0934 0 0
11:15 pm 23:15 Clear 74 23.5 55 12.5 50 50 SSE 12 19 29.82 1010 10 16.0934 0 0
11:35 pm 23:35 Clear 75 24.1 55 12.5 48 48 S 13 20 29.82 1010 10 16.0934 0 0
11:55 pm 23:55 Clear 76 24.5 55 12.5 47 47 S 16 26 29.81 1010 10 16.0934 0 0

Powered by AerisWeather